Retour au catalogue

STARLINK-31598

ActifCommunicationsVLEO
NORAD 59263·PAYLOAD·🇺🇸 United States

Lancé Mar 19, 2024 depuis Vandenberg Space Force Base

Loading…

Prochains Passages (prochaines 24 heures)

TLE

FraisSource: CelesTrak SupGP

Époque: Sep 15, 2026, 03:07 UTC

1 59263C 24050K   26258.13034722  .00045014  00000+0  13304-2 0  2585
2 59263  53.1591  18.5038 0001272  95.6010  82.2786 15.34357027    10

Suivez STARLINK-31598 en temps réel avec AllMySat

Download on the App Store